Flag for Russia Weather past 2 weeks in Kemerovo, Russia

Now
79 °F

Sunny.


Feels Like: 79 °F
Forecast: 67 / 90 °F
Wind: 8 mph from Northeast

Location: Kemerovo

Current Time: Jun 30, 2015 at 1:14:12 PM

Latest Report: Jun 30, 2015 at 12:30 PM


Visibility: 10 mi

Pressure: 29.86 "Hg

Humidity: 45%

Dew point: 55 °F

Location of KemerovoLocation

Historic Weather in Kemerovo — Graph

°F

Kemerovo temperature yesterday

Maximum temperature yesterday: 82 °F (at 5:00 PM)
Minimum temperature yesterday: 59 °F (at 3:00 AM)
Average temperature yesterday: 71 °F

Past Weeks' High & Low Weather Summary

 TemperatureHumidityPressure
High86 °F (Jun 24, 5:00 PM)100% (Jun 17, 7:00 AM)30.09 "Hg (Jun 17, 7:00 AM)
Low50 °F (Jun 26, 4:00 AM)27% (Jun 22, 3:00 PM)29.59 "Hg (Jun 24, 7:30 PM)
Average67 °F56%29.92 "Hg
* Reported Jun 15 12:00 Noon — Jun 30 12:00 Noon, Kemerovo, Weather by CustomWeather, © 2015

Note: Actual official high and low records may vary slightly from our data, if they occured in-between our weather recording intervals... More about our weather records

Advertising

Kemerovo weather history for previous 24 hours

 ConditionsComfort  
Time TempWeatherWind HumidityBarometerVisibility
12:00 PM
Tue, Jun 30
79 °FSunny.No wind45%29.86 "Hg10 mi
11:30 AM77 °FSunny.6 mph47%29.89 "Hg10 mi
11:00 AM77 °FSunny.1 mph47%29.89 "Hg10 mi
10:30 AM75 °FSunny.6 mph50%29.89 "Hg10 mi
10:00 AM75 °FSunny.3 mph50%29.89 "Hg10 mi
9:30 AM72 °FSunny.3 mph57%29.89 "Hg10 mi
9:00 AM72 °FSunny.6 mph57%29.89 "Hg10 mi
8:30 AM68 °FSunny.6 mph69%29.89 "Hg10 mi
8:00 AM68 °FSunny.6 mph69%29.89 "Hg10 mi
7:30 AM64 °FSunny.6 mph73%29.89 "Hg10 mi
7:00 AM64 °FSunny.6 mph73%29.89 "Hg10 mi
6:30 AM61 °FSunny.6 mph77%29.89 "Hg10 mi
6:00 AM61 °FSunny.6 mph77%29.92 "Hg10 mi
5:30 AM61 °FClear.6 mph77%29.92 "Hg10 mi
4:30 AM63 °FClear.6 mph73%29.92 "Hg10 mi
4:00 AM63 °FClear.3 mph73%29.92 "Hg10 mi
3:30 AM63 °FClear.3 mph73%29.92 "Hg10 mi
3:00 AM63 °FClear.6 mph73%29.92 "Hg10 mi
2:30 AM66 °FClear.3 mph64%29.92 "Hg10 mi
2:00 AM66 °FClear.6 mph64%29.95 "Hg10 mi
1:30 AM68 °FClear.8 mph60%29.95 "Hg10 mi
1:00 AM68 °FClear.8 mph60%29.95 "Hg10 mi
12:30 AM70 °FClear.8 mph57%29.95 "Hg10 mi
12:00 AM70 °FClear.8 mph57%29.95 "Hg10 mi
11:30 PM
Mon, Jun 29
72 °FClear.8 mph53%29.95 "Hg10 mi
11:00 PM72 °FClear.8 mph53%29.95 "Hg10 mi
10:30 PM72 °FSunny.8 mph53%29.95 "Hg10 mi
10:00 PM72 °FSunny.8 mph53%29.95 "Hg10 mi
9:30 PM75 °FSunny.8 mph47%29.95 "Hg10 mi
9:00 PM75 °FSunny.10 mph47%29.95 "Hg10 mi
8:30 PM79 °FSunny.10 mph37%29.95 "Hg10 mi
8:00 PM79 °FSunny.10 mph39%29.95 "Hg10 mi
7:30 PM81 °FSunny.10 mph34%29.95 "Hg10 mi
7:00 PM81 °FSunny.8 mph34%29.95 "Hg10 mi
6:30 PM81 °FSunny.6 mph37%29.95 "Hg10 mi
6:00 PM82 °FSunny.10 mph32%29.95 "Hg10 mi
5:30 PM82 °FSunny.6 mph32%29.95 "Hg10 mi
5:00 PM82 °FSunny.10 mph32%29.95 "Hg10 mi
4:30 PM81 °FSunny.10 mph34%29.98 "Hg10 mi
4:00 PM81 °FSunny.8 mph34%29.98 "Hg10 mi
3:30 PM81 °FSunny.15 mph34%29.98 "Hg10 mi
3:00 PM81 °FSunny.10 mph34%29.98 "Hg10 mi
2:30 PM81 °FSunny.10 mph34%30.01 "Hg10 mi
2:00 PM81 °FSunny.10 mph34%30.01 "Hg10 mi
1:30 PM79 °FSunny.10 mph34%30.01 "Hg10 mi
1:00 PM79 °FSunny.10 mph34%30.01 "Hg10 mi
Weather by CustomWeather, © 2015

See weather overviewHow to use our weather pages